Voltar ao catálogo

ONEWEB-0696

AtivoComunicaçõesPO
NORAD 56723·PAYLOAD·🇬🇧 United Kingdom

Lançado May 20, 2023 de Vandenberg Space Force Base

Loading…

Próximas Passagens (próximas 24 horas)

TLE

AtualizadoSource: CelesTrak SupGP

Época: Sep 14, 2026, 20:27 UTC

1 56723C 23068P   26257.85227269  .00002112  00000+0  56156-2 0  2572
2 56723  87.8984 241.3411 0002360  76.3458 321.7287 13.15549317    19

Acompanhe ONEWEB-0696 em tempo real com AllMySat

Download on the App Store